カタログに戻る

COSMOS 2251 DEB

運用中LEO
NORAD 37284·DEBRIS·🇷🇺 Russia

打ち上げ Jun 16, 1993 から Plesetsk Cosmodrome

Loading…

次のパス (今後24時間)

TLE

経年Source: Space-Track

元期: Sep 12, 2026, 15:49 UTC

1 37284U 93036BHY 26255.65956069  .00002281  00000-0  10775-2 0  9996
2 37284  74.0164  31.2905 0159221 118.7113 256.1223 14.13852050630458

AllMySatでCOSMOS 2251 DEBをリアルタイム追跡

Download on the App Store